Weather History for Black River Falls, WI

Change the Weather History Date:

Tuesday, February 19, 2013

  Actual Average (KLSE) Record (KLSE)
Temperature  
Mean Temperature 12 °F 24 °F  
Max Temperature 19 °F 33 °F 59 °F (1930)
Min Temperature 5 °F 15 °F -20 °F (1929)
Degree Days  
Heating Degree Days 53 41  
Month to date heating degree days 838  
Since 1 July heating degree days 5157  
Cooling Degree Days 0 0  
Month to date cooling degree days 0  
Year to date cooling degree days 0  
Moisture  
Dew Point 0 °F    
Average Humidity 63    
Maximum Humidity 80    
Minimum Humidity 48    
Precipitation  
Precipitation 0.00 in 0.04 in 0.96 in (2002)
Month to date precipitation 0.67  
Year to date precipitation 1.79  
Snow  
Snow 0.00 in 0.30 in 7.30 in (1917)
Month to date snowfall 5.7  
Since 1 July snowfall 32.0  
Snow Depth -    
Sea Level Pressure  
Sea Level Pressure 29.93 in    
Wind  
Wind Speed 12 mph (WNW)    
Max Wind Speed 21 mph    
Max Gust Speed 30 mph    
Visibility 7 miles    
Events Snow    
T = Trace of Precipitation, MM = Missing Value Source: NWS Daily Summary

Daily Weather History Graph

Daily Weather History Graph

Search for Another Location

Airport:

Trip Planner

Search our weather history database for the weather conditions in past years. The results will help you decide how hot, cold, wet, or windy it might be!

Date:

Astronomy

Feb. 19, 2013 Rise Set
Actual Time 6:56 AM CST 5:38 PM CST
Civil Twilight 6:26 AM CST 6:08 PM CST
Nautical Twilight 5:53 AM CST 6:41 PM CST
Astronomical Twilight 5:19 AM CST 7:15 PM CST
Moon 12:03 PM CST (2/19) 2:35 AM CST (2/19)
Length of Visible Light 11h 41m
Length of Day
10h 42m
Waxing Gibbous, 67% of the Moon is Illuminated
Feb 19
Waxing Gibbous
Feb 25
Full
Mar 4
Last Quarter
Mar 11
New
Mar 19
First Quarter

Hourly Weather History & Observations

Time (CST) Temp. Windchill Dew Point Humidity Pressure Visibility Wind Dir Wind Speed Gust Speed Precip Events Conditions
12:15 AM 19.4 °F 8.6 °F 14.0 °F 80% 29.62 in 10.0 mi West 9.2 mph 20.7 mph N/A   Overcast
12:35 AM 19.4 °F 7.2 °F 14.0 °F 80% 29.63 in 10.0 mi West 11.5 mph 20.7 mph N/A   Overcast
12:55 AM 19.4 °F 6.6 °F 12.2 °F 74% 29.63 in 10.0 mi West 12.7 mph 21.9 mph N/A Snow Light Snow
1:15 AM 19.4 °F 6.6 °F 12.2 °F 74% 29.64 in 7.0 mi WNW 12.7 mph 18.4 mph N/A Snow Light Snow
1:35 AM 19.4 °F 8.6 °F 12.2 °F 74% 29.64 in 2.0 mi WNW 9.2 mph 17.3 mph N/A Snow Light Snow
2:15 AM 17.6 °F 6.4 °F 12.2 °F 79% 29.65 in 3.0 mi WNW 9.2 mph 17.3 mph N/A Snow Light Snow
2:35 AM 17.6 °F 3.2 °F 10.4 °F 73% 29.66 in 5.0 mi WNW 15.0 mph 23.0 mph N/A Snow Light Snow
2:55 AM 17.6 °F 3.7 °F 10.4 °F 73% 29.66 in 5.0 mi WNW 13.8 mph 28.8 mph N/A Snow Light Snow
3:15 AM 15.8 °F 1.4 °F 8.6 °F 73% 29.67 in 5.0 mi WNW 13.8 mph 24.2 mph N/A Snow Light Snow
3:35 AM 15.8 °F 0.9 °F 8.6 °F 73% 29.68 in 5.0 mi WNW 15.0 mph 20.7 mph N/A Snow Light Snow
3:55 AM 14.0 °F -1.4 °F 8.6 °F 79% 29.69 in 4.0 mi WNW 15.0 mph 21.9 mph N/A Snow Light Snow
4:15 AM 14.0 °F -0.2 °F 6.8 °F 73% 29.70 in 2.0 mi WNW 12.7 mph 19.6 mph N/A Snow Light Snow
4:35 AM 14.0 °F -0.8 °F 8.6 °F 79% 29.71 in 2.0 mi West 13.8 mph 20.7 mph N/A Snow Light Snow
4:55 AM 12.2 °F -5.8 °F 6.8 °F 79% 29.73 in 2.0 mi West 19.6 mph 28.8 mph N/A Snow Light Snow
5:15 AM 12.2 °F -2.5 °F 5.0 °F 73% 29.73 in 1.2 mi WNW 12.7 mph 24.2 mph N/A Snow Light Snow
5:35 AM 12.2 °F -1.0 °F 5.0 °F 73% 29.74 in 3.0 mi WNW 10.4 mph 23.0 mph N/A Snow Light Snow
5:55 AM 12.2 °F -1.8 °F 5.0 °F 73% 29.76 in 4.0 mi WNW 11.5 mph 19.6 mph N/A Snow Light Snow
6:15 AM 10.4 °F -6.6 °F 3.2 °F 73% 29.77 in 4.0 mi WNW 16.1 mph 21.9 mph N/A Snow Light Snow
6:35 AM 10.4 °F -3.3 °F 1.4 °F 67% 29.78 in 3.0 mi NW 10.4 mph 26.5 mph N/A Snow Light Snow
6:55 AM 10.4 °F -3.3 °F 1.4 °F 67% 29.79 in 7.0 mi WNW 10.4 mph 18.4 mph N/A Snow Light Snow
7:15 AM 10.4 °F -5.4 °F 3.2 °F 73% 29.80 in 2.5 mi WNW 13.8 mph 21.9 mph N/A Snow Light Snow
7:35 AM 8.6 °F -8.9 °F 1.4 °F 73% 29.82 in 3.0 mi WNW 16.1 mph 23.0 mph N/A Snow Light Snow
7:55 AM 8.6 °F -7.0 °F 1.4 °F 73% 29.83 in 4.0 mi NW 12.7 mph 21.9 mph N/A Snow Light Snow
8:15 AM 8.6 °F -5.5 °F 1.4 °F 73% 29.84 in 7.0 mi WNW 10.4 mph 20.7 mph N/A   Overcast
8:35 AM 8.6 °F -8.3 °F -0.4 °F 67% 29.85 in 5.0 mi WNW 15.0 mph 23.0 mph N/A   Haze
8:55 AM 8.6 °F -8.3 °F -0.4 °F 67% 29.86 in 7.0 mi NW 15.0 mph 24.2 mph N/A   Overcast
9:15 AM 8.6 °F -8.9 °F -0.4 °F 67% 29.88 in 7.0 mi WNW 16.1 mph 25.3 mph N/A   Overcast
9:35 AM 8.6 °F -11.0 °F -2.2 °F 62% 29.88 in 7.0 mi NW 20.7 mph 26.5 mph N/A   Overcast
10:15 AM 8.6 °F -6.3 °F -0.4 °F 67% 29.90 in 7.0 mi NW 11.5 mph 25.3 mph N/A   Overcast
10:35 AM 8.6 °F -7.7 °F -2.2 °F 62% 29.91 in 7.0 mi WNW 13.8 mph 21.9 mph N/A   Overcast
10:55 AM 8.6 °F -8.3 °F -2.2 °F 62% 29.91 in 4.0 mi NW 15.0 mph 27.6 mph N/A   Haze
11:15 AM 8.6 °F -10.0 °F -4.0 °F 57% 29.93 in 7.0 mi WNW 18.4 mph 27.6 mph N/A   Overcast
11:35 AM 8.6 °F -8.3 °F -4.0 °F 57% 29.94 in 4.0 mi WNW 15.0 mph 27.6 mph N/A   Haze
11:55 AM 8.6 °F -9.5 °F -4.0 °F 57% 29.94 in 5.0 mi WNW 17.3 mph 25.3 mph N/A   Haze
12:15 PM 10.4 °F -5.4 °F -4.0 °F 52% 29.94 in 10.0 mi WNW 13.8 mph 25.3 mph N/A   Overcast
12:35 PM 8.6 °F -9.5 °F -4.0 °F 57% 29.95 in 10.0 mi NW 17.3 mph 25.3 mph N/A   Mostly Cloudy
1:15 PM 10.4 °F -6.6 °F -2.2 °F 57% 29.97 in 10.0 mi WNW 16.1 mph 26.5 mph N/A   Overcast
1:35 PM 10.4 °F -6.0 °F -4.0 °F 52% 29.98 in 10.0 mi NNW 15.0 mph 29.9 mph N/A   Mostly Cloudy
1:55 PM 10.4 °F -6.0 °F -4.0 °F 52% 29.98 in 10.0 mi NW 15.0 mph 24.2 mph N/A   Mostly Cloudy
2:15 PM 10.4 °F -6.0 °F -2.2 °F 57% 29.99 in 10.0 mi WNW 15.0 mph 23.0 mph N/A   Mostly Cloudy
2:35 PM 10.4 °F -6.6 °F -2.2 °F 57% 30.00 in 10.0 mi WNW 16.1 mph 28.8 mph N/A   Scattered Clouds
2:55 PM 12.2 °F -3.7 °F -4.0 °F 48% 30.01 in 10.0 mi NW 15.0 mph 24.2 mph N/A   Scattered Clouds
3:15 PM 10.4 °F -6.0 °F -4.0 °F 52% 30.01 in 10.0 mi WNW 15.0 mph 26.5 mph N/A   Scattered Clouds
3:35 PM 10.4 °F -5.4 °F -4.0 °F 52% 30.02 in 10.0 mi NW 13.8 mph 19.6 mph N/A   Clear
3:55 PM 12.2 °F -3.7 °F -4.0 °F 48% 30.04 in 10.0 mi NW 15.0 mph 23.0 mph N/A   Scattered Clouds
4:15 PM 10.4 °F -3.3 °F -2.2 °F 57% 30.05 in 10.0 mi NW 10.4 mph 17.3 mph N/A   Scattered Clouds
4:35 PM 12.2 °F -4.3 °F -2.2 °F 53% 30.06 in 10.0 mi NW 16.1 mph 25.3 mph N/A   Scattered Clouds
5:15 PM 12.2 °F -2.5 °F -4.0 °F 48% 30.08 in 10.0 mi WNW 12.7 mph 20.7 mph N/A   Mostly Cloudy
5:35 PM 10.4 °F -4.8 °F -4.0 °F 52% 30.08 in 10.0 mi WNW 12.7 mph 23.0 mph N/A   Scattered Clouds
6:35 PM 10.4 °F -2.4 °F -4.0 °F 52% 30.12 in 10.0 mi WNW 9.2 mph - N/A   Mostly Cloudy
6:55 PM 10.4 °F -0.4 °F -4.0 °F 52% 30.13 in 10.0 mi NW 6.9 mph 16.1 mph N/A   Scattered Clouds
7:15 PM 10.4 °F -0.4 °F -4.0 °F 52% 30.13 in 10.0 mi WNW 6.9 mph 16.1 mph N/A   Clear
7:35 PM 8.6 °F -3.7 °F -4.0 °F 57% 30.15 in 10.0 mi WNW 8.1 mph - N/A   Clear
7:55 PM 8.6 °F -1.3 °F -4.0 °F 57% 30.15 in 10.0 mi WNW 5.8 mph - N/A   Clear
8:15 PM 8.6 °F -2.6 °F -4.0 °F 57% 30.16 in 10.0 mi WNW 6.9 mph - N/A   Clear
8:35 PM 8.6 °F -1.3 °F -4.0 °F 57% 30.18 in 10.0 mi WNW 5.8 mph - N/A   Clear
8:55 PM 8.6 °F -2.6 °F -4.0 °F 57% 30.18 in 10.0 mi NW 6.9 mph - N/A   Clear
9:15 PM 8.6 °F -2.6 °F -5.8 °F 52% 30.19 in 10.0 mi NW 6.9 mph - N/A   Clear
9:35 PM 8.6 °F -3.7 °F -5.8 °F 52% 30.20 in 10.0 mi NW 8.1 mph - N/A   Clear
10:15 PM 6.8 °F -4.8 °F -5.8 °F 56% 30.21 in 10.0 mi NW 6.9 mph - N/A   Clear
10:35 PM 6.8 °F -3.5 °F -5.8 °F 56% 30.22 in 10.0 mi NW 5.8 mph - N/A   Clear
10:55 PM 5.0 °F -5.6 °F -5.8 °F 61% 30.22 in 10.0 mi WNW 5.8 mph - N/A   Clear
11:15 PM 5.0 °F -4.1 °F -5.8 °F 61% 30.22 in 10.0 mi WNW 4.6 mph - N/A   Clear
11:35 PM 5.0 °F -6.9 °F -5.8 °F 61% 30.23 in 10.0 mi NW 6.9 mph - N/A   Clear
11:55 PM 5.0 °F -6.9 °F -5.8 °F 61% 30.24 in 10.0 mi NW 6.9 mph - N/A   Clear